Regional Weather Roundup
Issued by NWS Little Rock, AR

Home | Current Version | Previous Version | Text Only | Print | Product List | Glossary Off
Versions: 1 2 3 4 5 6 7 8 9 10 11 12 13 14 15 16 17 18 19 20 21 22 23 24 25 26 27 28 29 30 31 32 33 34 35 36 37 38 39 40 41 42 43 44 45 46 47 48 49 50

000
ASUS44 KLZK 170205
RWRLZK

WEATHER ROUNDUP FOR ARKANSAS
NATIONAL WEATHER SERVICE LITTLE ROCK AR
900 PM CDT TUE SEP 16 2014

NOTE: "FAIR" INDICATES FEW OR NO CLOUDS BELOW 12,000 FEET WITH NO
SIGNIFICANT WEATHER AND/OR OBSTRUCTIONS TO VISIBILITY.

ARZ001-003-010-029-170300-
NORTHWEST ARKANSAS

CITY           SKY/WX    TMP DP  RH WIND       PRES   REMARKS
FAYETTEVILLE   CLOUDY    69  68  96 CALM      30.06S
FORT SMITH     CLEAR     72  66  81 NE9       30.02R
HARRISON       CLOUDY    65  64  97 E3        30.09R FOG
BENTONVILLE    CLEAR     70  64  83 E5        30.07R
ROGERS         CLEAR     68  64  87 E7        30.08R
SILOAM SPGS    CLEAR     70  63  78 E5        30.06S
HIGHFILL       CLEAR     69  67  93 E3        30.06R
SPRINGDALE     PTCLDY    68  66  94 NE6       30.08S
$$

ARZ004-005-016-170300-
NORTH CENTRAL ARKANSAS

CITY           SKY/WX    TMP DP  RH WIND       PRES   REMARKS
BATESVILLE     CLOUDY    66  59  77 E5        30.08R
FLIPPIN        CLOUDY    66  61  82 CALM      30.08R
MTN HOME       CLOUDY    66  62  87 CALM      30.07R
$$

ARZ040-041-170300-
WEST CENTRAL ARKANSAS

CITY           SKY/WX    TMP DP  RH WIND       PRES   REMARKS
MENA           MOCLDY    75  72  88 CALM      30.05R
MOUNT IDA      CLEAR     74  68  81 E3        30.03R
$$

ARZ009-017-025-026-028-170300-
NORTHEAST ARKANSAS

CITY           SKY/WX    TMP DP  RH WIND       PRES   REMARKS
CORNING          N/A     66  63  88 NE7       30.08S
JONESBORO      CLOUDY    68  59  73 NE7       30.07R
NEWPORT        MOCLDY    65  62  90 NE5       30.08R
WALNUT RIDGE   CLOUDY    66  59  77 CALM      30.07R
BLYTHEVILLE    CLOUDY    67  60  78 NE6       30.07S
$$

ARZ022-023-033-042-044-170300-
CENTRAL ARKANSAS

CITY           SKY/WX    TMP DP  RH WIND       PRES   REMARKS
LITTLE ROCK    CLEAR     71  65  81 NE3       30.06R
N LITTLE ROCK  CLEAR     69  67  94 NE6       30.06R
JACKSONVILLE   CLEAR     70  67  89 VRB3      30.06R
SEARCY         CLEAR     67  61  81 NE6       30.07R
HOT SPRINGS    PTCLDY    75  72  90 E7        30.04R
RUSSELLVILLE     N/A    N/A N/A N/A MISG      30.05R
CLINTON        CLOUDY    70  70 100 CALM      30.07R FOG
$$

ARZ036-170300-
EAST ARKANSAS

CITY           SKY/WX    TMP DP  RH WIND       PRES   REMARKS
WEST MEMPHIS   PTCLDY    68  62  81 N7        30.05R
$$

ARZ050-053-066-070-073-170300-
SOUTHWEST ARKANSAS

CITY           SKY/WX    TMP DP  RH WIND       PRES   REMARKS
ARKADELPHIA    FAIR      76  73  90 NE3       30.03R
CAMDEN         CLEAR     72  66  83 CALM      30.01R
TEXARKANA      CLEAR     76  70  82 SE5       30.01R
EL DORADO      CLEAR     73  71  93 CALM      30.02R
DE QUEEN       CLEAR     74  72  93 CALM      30.00R
$$

ARZ056-057-069-170300-
SOUTHEAST ARKANSAS

CITY           SKY/WX    TMP DP  RH WIND       PRES   REMARKS
PINE BLUFF     PTCLDY    71  67  87 N5        30.04R
STUTTGART      MOCLDY    70  64  83 N6        30.06R
MONTICELLO     CLEAR     77  70  79 NE6       30.03R

$$





USA.gov is the U.S. government's official web portal to all federal, state and local government web resources and services.